This demonstration page uses our WeatherBlox Daily Observations layout. Learn more.

Left ArrowRight Arrow

39.08367, -84.50855

Hourly Observations for September 27, 2017

Temp ( °F °C ) Dew Point ( °F °C ) Humidity (%) Winds ( mph kmh ) Pressure ( in mb ) Visibility ( mi km ) Precip ( " mm )
12:53 am 00:53 Clear 65 18.3 65 18.3 100 100 N N/A 29.97 1015 9 14 N/A
1:53 am 01:53 Clear 63 17.2 63 17.2 100 100 N N/A 29.96 1015 8 13 N/A
2:53 am 02:53 Clear 64 17.8 64 17.8 100 100 N N/A 29.97 1015 8 13 N/A
3:53 am 03:53 Clear 62 16.7 62 16.7 100 100 N N/A 29.97 1015 7 11 N/A
4:11 am 04:11 Clear with Mist and Fog 62 16.7 62 16.7 100 100 N N/A 29.94 1014 2 2 N/A
4:21 am 04:21 Clear with Mist and Fog 62 16.7 62 16.7 100 100 N N/A 29.94 1014 1 1 N/A
4:32 am 04:32 Clear with Mist and Fog 62 16.7 62 16.7 100 100 N N/A 29.94 1014 2 3 N/A
4:38 am 04:38 Mostly Cloudy with Mist and Fog 61 16.1 61 16.1 100 100 N N/A 29.94 1014 1 1 N/A
4:53 am 04:53 Mostly Cloudy with Mist and Fog 62 16.7 62 16.7 100 100 N N/A 29.96 1015 1 1 N/A
4:55 am 04:55 Mostly Clear with Mist and Fog 62 16.7 62 16.7 100 100 N N/A 29.94 1014 1 2 N/A
5:00 am 05:00 Mostly Clear with Mist and Fog 62 16.7 62 16.7 100 100 N N/A 29.94 1014 4 6 N/A
5:36 am 05:36 Clear with Mist and Fog 61 16.1 61 16.1 100 100 N N/A 29.94 1014 2 3 N/A
5:48 am 05:48 Clear with Mist and Fog 61 16 61 16 100 100 N N/A 29.94 1014 3 5 N/A
5:53 am 05:53 Clear with Mist and Fog 62 16.7 62 16.7 100 100 N N/A 29.97 1015 3 5 N/A
6:00 am 06:00 Clear with Mist and Fog 62 16.7 62 16.7 100 100 N N/A 29.94 1014 2 3 N/A
6:03 am 06:03 Clear with Mist and Fog 62 16.7 62 16.7 100 100 N N/A 29.97 1015 3 5 N/A
6:18 am 06:18 Clear with Mist and Fog 61 16.1 61 16.1 100 100 N N/A 29.97 1015 2 3 N/A
6:26 am 06:26 Clear with Mist and Fog 61 16.1 61 16.1 100 100 N N/A 29.97 1015 3 5 N/A
6:39 am 06:39 Clear with Mist and Fog 61 16.1 61 16.1 100 100 N N/A 29.97 1015 2 3 N/A
6:44 am 06:44 Clear with Mist and Fog 61 16.1 61 16.1 100 100 N N/A 29.97 1015 3 5 N/A
6:53 am 06:53 Clear with Patchy Fog 61 16.1 61 16.1 100 100 N N/A 29.98 1015 3 5 N/A
7:53 am 07:53 Sunny with Patchy Fog 61 16.1 61 16.1 100 100 N N/A 29.98 1015 5 8 N/A
8:53 am 08:53 Sunny 66 18.9 65 18.3 96 96 N N/A 30.00 1016 7 11 N/A
9:53 am 09:53 Sunny 72 22.2 68 20 87 87 N N/A 29.99 1016 10 16 N/A
10:53 am 10:53 Sunny 79 26.1 69 20.6 72 72 N N/A 29.98 1015 10 16 N/A
11:53 am 11:53 Sunny 84 28.9 67 19.4 57 57 S 5 7 29.96 1015 10 16 N/A
12:53 pm 12:53 Sunny 88 31.1 66 18.9 48 48 VRB 5 7 29.95 1014 10 16 N/A
1:53 pm 13:53 Sunny 90 32.2 63 17.2 41 41 WNW 5 7 29.93 1014 10 16 N/A
2:53 pm 14:53 Partly Cloudy 92 33.3 63 17.2 38 38 NW 8 13 29.93 1013 10 16 N/A
3:53 pm 15:53 Partly Cloudy 90 32.2 66 18.9 45 45 NNW 15 24 29.92 1013 10 16 N/A
4:53 pm 16:53 Sunny 89 31.7 63 17.2 42 42 NW 10 17 29.92 1013 10 16 N/A
5:53 pm 17:53 Partly Cloudy 87 30.6 65 18.3 48 48 NNW 9 15 29.92 1013 10 16 N/A
6:53 pm 18:53 Sunny 84 28.9 66 18.9 55 55 NW 14 22 29.93 1014 10 16 N/A
7:53 pm 19:53 Clear 81 27.2 67 19.4 62 62 NNW 12 19 29.96 1014 10 16 N/A
8:53 pm 20:53 Clear 78 25.6 65 18.3 64 64 NNW 12 19 29.98 1015 10 16 N/A
9:53 pm 21:53 Clear 75 23.9 62 16.7 64 64 N 13 20 30.01 1016 10 16 N/A
10:53 pm 22:53 Clear 72 22.2 58 14.4 61 61 N 16 26 30.01 1016 10 16 N/A
11:53 pm 23:53 Clear 70 21.1 55 12.8 59 59 N 16 26 30.02 1017 10 16 N/A

Powered by AerisWeather